Погода Огурцово

Погода Огурцово : погода сейчас, прогноз погоды и архив. Всё, что Вы хотите узнать о погоде Огурцово!

Хотите узнать прогноз погоды Огурцово? Тогда Вам сюда: Погода Огурцово

Поиск расширенной информации на нашем сайте:

Другие новости

Новости СМИ2

Главная страница сайта

Новости сайта

03.07.2017

Напоминаем, что на нашем специализированном сайте Метеоцентр.Азия вы можете получить высокодетализированные автоматические прогнозы погоды по пунктам России, СНГ и мира в авиационном формате (включающие направление и скорость ветра, видимость, явления погоды, количество и форму облачности, нижнюю и верхнюю границу облачности).


Погода Огурцово - сегодня

Время (UTC), дата Ветер
(°,м/с) 
Видим.   Явления Облачность Т
(°С)
Тd
(°С)
f(%) Тe
(°С)
Pmin
(гПа)
dP
(гПа)
Po
(мм)
O2
(г/м3)
Тmin Tmax R s Состояние
почвы
00 22.11.17 230 (ЮЗ) 4000 м  слаб. ливневой снег  10/10 600 м кучево-дожд. 
[Cb cap]
-2 -4.6 82 -4  1031.3  -0.1  761  309  -2.7    14  равномерный
сухой снег
100% 
03 22.11.17 230 (ЮЗ) 8000 м  слаб. ливневой снег  10/10 600 м кучево-дожд. 
[Cb cap]
-1.8 -4.4 82 -3  1032.9  1.6  762  310           
06 22.11.17 220 (ЮЗ) 9000 м  слаб. ливневой снег  10/10 600 м кучево-дожд. 
[Cb cap]
-1.2 -3.1 87 -3  1034  1.2  763  309           
09 22.11.17 190 (Ю) 12000 м  в посл. час ливневой дождь [диам. гололёда 1 мм]  10/10 600 м кучево-дожд. 
[Cb cap]
-1.5 -3.4 87 -2  1034.3  0.2  763  310           
12 22.11.17 190 (Ю) 20000 м  в посл. час ливневой снег [диам. гололёда 1 мм]  10/10 600 м кучево-дожд. 
[Cb cap]
-1.9 -3.8 87 -1  1034.6  0.3  763  310    -1     
15 22.11.17 190 (Ю) 20000 м  [диам. гололёда 1 мм]  8/8 600 м кучево-дожд. 
[Cb cap]
-3 -5.5 83 -4  1034.4  -0.3  763  311           
18 22.11.17 180 (Ю) 20000 м  [диам. гололёда 1 мм]  6/6 1000 м 
[Sc]
-6 -8.2 84 -6  1034.4  -0.2  763  315           
21 22.11.17 200 (Ю) 20000 м  [диам. гололёда 1 мм]  8/6 1000 м верхняя 
[Sc|Ci fib]
-5.7 -7.9 84 -7  1033.8  -0.6  762  315           
00 23.11.17 180 (Ю) 20000 м  [диам. гололёда 1 мм]  ясно 
-8 -9.5 89 -11  1033.3  -0.6  762  317  -8.7      12  равномерный
сухой снег
100% 
03 23.11.17 180 (Ю) 17000 м  [диам. гололёда 1 мм]  3/0 верхняя 
[Ci fib]
-8.8 -10.3 89 -12  1033.4  0.1  762  318  -10.7         
06 23.11.17 160 (Ю) 9000 м  дымка  3/0 верхняя 
[Ci fib]
-5.3 -8 81 -8  1033  -0.2  762  314           
09 23.11.17 190 (Ю) 16000 м    6/0 верхняя 
[Ci fib]
-3.1 -7.3 73 -4  1032.3  -0.5  761  311           
12 23.11.17 190 (Ю) 20000 м    8/0 верхняя 
[Ci fib]
-5.4 -7.8 83 -8  1031.9  -0.6  761  314    -2.9       
15 23.11.17 200 (Ю) 20000 м    6/0 верхняя 
[Ci fib]
-5.8 -8.5 81 -7  1031.7  -0.3  761  314           
18 23.11.17 190 (Ю) 20000 м    4/0 верхняя 
[Ci fib]
-6.1 -8.5 83 -9  1031.3  -0.4  761  314           
21 23.11.17 190 (Ю) 20000 м    4/3 1000 м верхняя 
[Sc|Ci fib]
-7.2 -9.3 85 -9  1031  -0.3  760  316           
00 24.11.17 190 (Ю) 20000 м    6/3 600 м верхняя 
[Sc|Ci fib]
-10.6 -12.3 87 -12  1031.6  0.3  761  320  -10.7      14  равномерный
сухой снег
100% 
03 24.11.17 180 (Ю) 15000 м    8/4 1000 м верхняя 
[Sc|Ci fib]
-10.6 -12 89 -12  1031.1  -0.4  760  320  -12.6         
06 24.11.17 190 (Ю) 17000 м    6/0 верхняя 
[Ci fib]
-4.4 -8.3 74 -6  1030.9  0.2  760  312           
09 24.11.17 180 (Ю) 21000 м    3/0 верхняя 
[Ci fib]
-3.8 -9.3 66 -3  1030.4  -0.5  760  311           
12 24.11.17 140 (ЮВ) 20000 м    3/0 верхняя 
[Ci fib]
-7.8 -11.4 75 -8  1030.1  -0.6  760  316    -3.6       
15 24.11.17 170 (Ю) 20000 м    ясно 
-9.8 -11.5 87 -10  1028.9  -1.3  759  318           
18 24.11.17 130 (ЮВ) 20000 м    ясно 
-10 -12.2 84 -10  1027.1  -1.7  757  318           
21 24.11.17 130 (ЮВ) 20000 м    ясно 
-9.3 -11.9 81 -11  1025.2  -1.9  756  316           
00 25.11.17 130 (ЮВ) 20000 м    ясно 
-8.7 -12 77 -10  1022.1  -3  754  315  -10.7      14  равномерный
сухой снег
100% 
Время (UTC), дата Ветер
(°,м/с) 
Видим.   Явления Облачность Т
(°С)
Тd
(°С)
f(%) Тe
(°С)
Pmin
(гПа)
dP
(гПа)
Po
(мм)
O2
(г/м3)
Тmin Tmax R s Состояние
почвы

Для получения пояснительной информации подведите курсор к названию столбца.

ПОГОДА Огурцово - архив

Всё, что Вы хотите узнать о погоде Огурцово - удобно и подробно!

Выберите нужную дату (начиная с 1 января 2015* года) и нажмите кнопку "Найти".
Будут отображены архивные сводки погоды по пункту Огурцово, начиная с указанной даты.


Отображать данные в формате CSV (для использования в таблицах Excel)


Внимание! Наш архив погоды предназначен исключительно для личного некоммерческого использования в познавательных целях. Если Вам необходимы официальные справки о состоянии погоды (для производственных, юридических, коммерческих и т.п. целей), обращайтесь в органы Росгидромета.

*Примечание: данная дата относится к архиву по метеостанциям СССР (Россия, СНГ, Балтия).
Архив по метеостанциям Зарубежной Европы и Азии (кроме Китая) хранится 10 дней, по другим регионам земного шара (Китай, Африка, Америка, Австралия, Океания) - 1 день.

Огурцово - район местоположения метеостанции


Название, широта, долгота, высота метеостанции:
Огурцово 54.9°ш. 82.9°д. 133 м над ур. моря [Российская Федерация]

Дополнительная информация

В oтличие oт бoльшинства пoгoдных сайтoв мы публикуем пoдрoбную метеoинфoрмацию в детальнoм прoфессиoнальнoм фoрмате.

Характеристики температуры и влажнoсти вoздуха измеряются на высoте 2 м в тени вдали oт зданий и деревьев.
Скoрoсть ветра измеряется на высoте 10 м (на урoвне рoста челoвека скoрoсть ветра ниже в 1.5-2 раза). Если метеoстанция нахoдится в гoрoде или в лесу, тo скoрoсть ветра занижена на 2-4 м/с пo сравнению с oткрытым местoм. Скoрoсть ветра над акватoриями крупных рек и oзёр, а также на вершинах хoлмoв на 2-5 м/с выше, чем в oбычных услoвиях.
Атмoсфернoе давление в разных тoчках местнoсти мoжет значительнo oтличаться oт давления на метеoстанции, в зависимoсти oт услoвий рельефа (при пoдъёме на 10 м давление пoнижается примернo на 1 мм рт.ст.).